Вернуться в каталог

SL-6 DEB

АктивенHEO
NORAD 13904·DEBRIS·🇷🇺 Russia

Запущен Sep 11, 1981 с Plesetsk Cosmodrome

Loading…

Ближайшие Пролёты (ближайшие 24 часа)

TLE

СвежийSource: Space-Track

Эпоха: Sep 14, 2026, 03:07 UTC

1 13904U 81088G   26257.13017269 -.00000019  00000-0 -26418-3 0  9999
2 13904  62.9433 158.2663 4752576 306.9475  18.3200  5.48376227671021

Отслеживайте SL-6 DEB в реальном времени с AllMySat

Download on the App Store